Albertville, AL

1:36 PM CDT on June 28, 2017 (GMT -0500)
Albertville

Weather History for K8A0 - February, 2014

Change the Weather History Date:

Sunday, February 2, 2014

  Actual Average (KGAD) Record (KGAD)
Temperature  
Mean Temperature 52 °F -  
Max Temperature 60 °F 51 °F 78 °F (2016)
Min Temperature 42 °F 32 °F 7 °F (1951)
Degree Days  
Heating Degree Days 13    
Growing Degree Days 2 (Base 50)    
Moisture  
Dew Point 59 °F    
Average Humidity 100    
Maximum Humidity 100    
Minimum Humidity 100    
Precipitation  
Precipitation 1.08 in - - ()
Sea Level Pressure  
Sea Level Pressure 29.98 in    
Wind  
Wind Speed 6 mph (SSE)    
Max Wind Speed 16 mph    
Max Gust Speed 25 mph    
Visibility 6 miles    
Events Rain    
Averages and records for this station are not official NWS values.
T = Trace of Precipitation, MM = Missing Value Source: NWS Daily Summary

Daily Weather History Graph

Daily Weather History Graph

Search for Another Location

Airport or City:

Trip Planner

Search our weather history database for the weather conditions in past years. The results will help you decide how hot, cold, wet, or windy it might be!

Date:

Astronomy

Feb. 02, 2014 Rise Set
Actual Time 6:41 AM CST 5:16 PM CST
Civil Twilight 6:15 AM CST 5:42 PM CST
Nautical Twilight 5:45 AM CST 6:12 PM CST
Astronomical Twilight 5:16 AM CST 6:41 PM CST
Moon 8:18 AM CST (2/2) 8:47 PM CST (2/2)
Length of Visible Light 11h 27m
Length of Day
10h 34m
Waxing Crescent, 11% of the Moon is Illuminated
Feb 2
Waxing Crescent
Feb 6
First Quarter
Feb 14
Full
Feb 22
Last Quarter
Mar 1
New

Hourly Weather History & Observations

Time (CST) Temp. Windchill Dew Point Humidity Pressure Visibility Wind Dir Wind Speed Gust Speed Precip Events Conditions
12:15 AM 48.2 °F - - N/A% 30.03 in 10.0 mi SSE 8.1 mph - N/A   Mostly Cloudy
12:35 AM 48.2 °F - - N/A% 30.04 in 10.0 mi SSE 6.9 mph - N/A   Scattered Clouds
12:55 AM 48.2 °F - - N/A% 30.04 in 10.0 mi SSE 5.8 mph - N/A   Clear
1:15 AM 48.2 °F - - N/A% 30.04 in 10.0 mi SSE 5.8 mph - N/A   Clear
1:35 AM 48.2 °F - - N/A% 30.03 in 10.0 mi SSE 8.1 mph - N/A   Clear
1:55 AM 48.2 °F - - N/A% 30.03 in 10.0 mi SSE 6.9 mph - N/A   Clear
2:15 AM 48.2 °F - - N/A% 30.02 in 10.0 mi South 6.9 mph - N/A   Clear
2:35 AM 50.0 °F - - N/A% 30.02 in 10.0 mi SSE 6.9 mph - N/A   Clear
2:55 AM 50.0 °F - - N/A% 30.02 in 7.0 mi SSE 5.8 mph - N/A   Scattered Clouds
3:15 AM 50.0 °F - - N/A% 30.02 in 7.0 mi SSE 3.5 mph - N/A   Overcast
3:35 AM 51.8 °F - - N/A% 30.03 in 7.0 mi SSW 4.6 mph - N/A   Overcast
3:55 AM 51.8 °F - - N/A% 30.02 in 5.0 mi South 5.8 mph - N/A   Haze
4:15 AM 51.8 °F - - N/A% 30.03 in 5.0 mi South 6.9 mph - N/A   Haze
4:35 AM 51.8 °F - - N/A% 30.03 in 7.0 mi South 10.4 mph - N/A   Overcast
4:55 AM 51.8 °F - - N/A% 30.03 in 7.0 mi South 8.1 mph - N/A   Overcast
5:15 AM 51.8 °F - - N/A% 30.04 in 7.0 mi South 8.1 mph - N/A   Overcast
5:35 AM 51.8 °F - - N/A% 30.04 in 7.0 mi SSE 5.8 mph - N/A   Overcast
5:55 AM 51.8 °F - - N/A% 30.05 in 5.0 mi South 6.9 mph - N/A   Haze
6:15 AM 51.8 °F - - N/A% 30.05 in 4.0 mi SSE 4.6 mph - N/A   Haze
6:35 AM 50.0 °F - - N/A% 30.03 in 3.0 mi SSE 8.1 mph - N/A   Overcast
6:55 AM 50.0 °F - - N/A% 30.04 in 4.0 mi South 6.9 mph - N/A   Haze
7:15 AM 50.0 °F - - N/A% 30.05 in 4.0 mi SSE 4.6 mph - N/A   Haze
7:35 AM 51.8 °F - - N/A% 30.06 in 4.0 mi SSE 5.8 mph - N/A   Haze
7:55 AM 51.8 °F - - N/A% 30.08 in 4.0 mi Calm Calm - N/A   Haze
8:15 AM 51.8 °F - - N/A% 30.07 in 4.0 mi SE 4.6 mph - N/A   Haze
8:35 AM 51.8 °F - - N/A% 30.08 in 5.0 mi South 3.5 mph - N/A   Haze
8:55 AM 53.6 °F - - N/A% 30.09 in 5.0 mi South 5.8 mph - N/A   Haze
9:15 AM 53.6 °F - - N/A% 30.08 in 7.0 mi SSE 4.6 mph - N/A   Overcast
9:35 AM 55.4 °F - - N/A% 30.07 in 7.0 mi SSE 5.8 mph - N/A   Overcast
9:55 AM 55.4 °F - - N/A% 30.07 in 7.0 mi South 9.2 mph - N/A   Overcast
10:15 AM 55.4 °F - - N/A% 30.08 in 4.0 mi South 6.9 mph - N/A Rain Rain
10:35 AM 55.4 °F - - N/A% 30.07 in 7.0 mi South 5.8 mph - N/A   Overcast
10:55 AM 55.4 °F - - N/A% 30.07 in 7.0 mi SSE 5.8 mph - N/A   Overcast
11:15 AM 55.4 °F - - N/A% 30.06 in 4.0 mi SSE 4.6 mph - N/A   Haze
11:35 AM 55.4 °F - - N/A% 30.05 in 5.0 mi South 4.6 mph - N/A   Haze
11:55 AM 59.0 °F - - N/A% 30.03 in 7.0 mi SSE 4.6 mph - N/A   Overcast
12:15 PM 59.0 °F - 59.0 °F 100% 30.02 in 5.0 mi SSE 5.8 mph - N/A Rain Rain
12:35 PM 57.2 °F - - N/A% 30.00 in 5.0 mi SE 5.8 mph - N/A   Haze
12:55 PM 55.4 °F - - N/A% 29.99 in 3.0 mi ESE 5.8 mph - N/A Rain Light Rain
1:15 PM 55.4 °F - - N/A% 29.99 in 2.0 mi SSE 5.8 mph - N/A   Overcast
1:35 PM 55.4 °F - - N/A% 29.98 in 3.0 mi SSE 8.1 mph - N/A   Overcast
1:55 PM 57.2 °F - - N/A% 29.96 in 3.0 mi SE 5.8 mph - N/A   Overcast
2:15 PM 59.0 °F - - N/A% 29.94 in 3.0 mi SE 3.5 mph - N/A   Overcast
2:35 PM 59.0 °F - - N/A% 29.94 in 4.0 mi Calm Calm - N/A   Haze
2:55 PM 59.0 °F - - N/A% 29.94 in 5.0 mi South 3.5 mph - N/A   Haze
3:15 PM 60.8 °F - - N/A% 29.94 in 5.0 mi SSE 4.6 mph - N/A   Haze
3:35 PM 60.8 °F - - N/A% 29.93 in 7.0 mi SE 6.9 mph - N/A   Overcast
3:55 PM 59.0 °F - - N/A% 29.91 in 7.0 mi SE 8.1 mph - N/A Rain Light Rain
4:15 PM 59.0 °F - - N/A% 29.90 in 7.0 mi SE 4.6 mph - 0.01 in Rain Rain
4:35 PM 59.0 °F - - N/A% 29.91 in 7.0 mi Calm Calm - 0.01 in Rain Light Rain
4:55 PM 59.0 °F - - N/A% 29.91 in 7.0 mi SE 3.5 mph - 0.02 in Rain Light Rain
5:15 PM 59.0 °F - - N/A% 29.91 in 5.0 mi South 6.9 mph - 0.02 in Rain Rain
5:35 PM 59.0 °F - - N/A% 29.91 in 5.0 mi SSE 8.1 mph - 0.05 in Rain Rain
5:55 PM 59.0 °F - - N/A% 29.92 in 3.0 mi South 5.8 mph - 0.09 in Rain Heavy Rain
6:15 PM 59.0 °F - - N/A% 29.91 in 2.5 mi SW 4.6 mph - 0.06 in Rain Heavy Rain
6:35 PM 59.0 °F - - N/A% 29.92 in 1.5 mi Calm Calm - 0.25 in Rain Heavy Rain
6:55 PM 59.0 °F - - N/A% 29.91 in 1.2 mi SW 4.6 mph - 0.27 in Rain Rain
7:15 PM 60.8 °F - - N/A% 29.91 in 7.0 mi South 8.1 mph - 0.02 in Rain Light Rain
7:35 PM 60.8 °F - - N/A% 29.91 in 7.0 mi South 6.9 mph - 0.03 in Rain Light Rain
7:55 PM 60.8 °F - - N/A% 29.89 in 7.0 mi South 6.9 mph - 0.05 in Rain Light Rain
8:15 PM 60.8 °F - - N/A% 29.89 in 5.0 mi SW 3.5 mph - 0.02 in Rain Rain
8:35 PM 59.0 °F - - N/A% 29.88 in 2.5 mi NNW 4.6 mph - 0.07 in Rain Heavy Rain
8:55 PM 55.4 °F - - N/A% 29.88 in 3.0 mi North 5.8 mph - 0.25 in Rain Heavy Rain
9:15 PM 51.8 °F - - N/A% 29.87 in 4.0 mi North 6.9 mph - 0.04 in Rain Rain
9:35 PM 50.0 °F - - N/A% 29.86 in 3.0 mi North 6.9 mph - 0.18 in Rain Heavy Rain
9:55 PM 46.4 °F 45.2 °F - N/A% 29.86 in 4.0 mi NNE 3.5 mph - 0.22 in Rain Heavy Rain
10:15 PM 46.4 °F 43.5 °F - N/A% 29.85 in 10.0 mi North 5.8 mph - 0.02 in Rain Light Rain
10:35 PM 46.4 °F 45.2 °F - N/A% 29.83 in 10.0 mi East 3.5 mph - 0.03 in Rain Rain
10:55 PM 53.6 °F - - N/A% 29.81 in 5.0 mi South 11.5 mph 16.1 mph 0.03 in Rain Rain
11:15 PM 57.2 °F - - N/A% 29.82 in 5.0 mi NW 10.4 mph 23.0 mph 0.03 in Rain Heavy Rain
11:35 PM 44.6 °F 37.4 °F - N/A% 29.85 in 5.0 mi NNW 16.1 mph 25.3 mph 0.10 in Rain Heavy Rain
11:55 PM 42.8 °F 36.6 °F - N/A% 29.89 in 7.0 mi NW 11.5 mph 18.4 mph 0.15 in Rain Rain